Regional Weather Roundup
Issued by NWS

Home | Current Version | Previous Version | Text Only | Print | Product List | Glossary On
Versions: 1 2 3 4 5 6 7 8 9 10 11 12 13 14 15 16 17 18 19 20 21 22 23 24 25 26 27 28 29 30 31 32 33 34 35 36 37 38 39 40 41 42 43 44 45 46 47 48 49 50
148
ASUS44 KLIX 281201
RWRLA
LOUISIANA WEATHER ROUNDUP
NATIONAL WEATHER SERVICE NEW ORLEANS LA
600 AM CST FRI NOV 28 2014

NOTE: "FAIR" INDICATES FEW OR NO CLOUDS BELOW 12,000 FEET WITH NO
      SIGNIFICANT WEATHER AND/OR OBSTRUCTIONS TO VISIBILITY.
      SKY/WX - SKY CONDITION AND SIGNIFICANT WEATHER.
      TMP - AIR TEMPERATURE.    DP   - DEWPOINT TEMPERATURE.
      RH  - RELATIVE HUMIDITY.  PRES - PRESSURE.
      HX  - HEAT INDEX.         WCI  - WIND CHILL INDEX.

*  THESE STATIONS ARE NOT NWS OR FAA STATIONS AND ARE NOT UNDER
   NWS QUALITY CONTROL.

LAZ040-048-061>063-065-066-069-281300-
SOUTHEAST LOUISIANA

CITY           SKY/WX    TMP DP  RH WIND       PRES   REMARKS
N.O. AUDUBON     N/A     44  36  73 MISG        N/A
6HR MIN TEMP:  42; 6HR MAX TEMP:  47;

N.O. INTL ARPT CLEAR     43  33  68 E7        30.43R
6HR MIN TEMP:  43; 6HR MAX TEMP:  49;

N.O. LAKEFRONT CLEAR     45  35  68 E14       30.43S
6HR MIN TEMP:  45; 6HR MAX TEMP:  51;

N.O. DOWNTOWN* FAIR      43  30  61 NE5       30.43S
6HR MIN TEMP:  43; 6HR MAX TEMP:  48;

SLIDELL        CLEAR     31  28  89 N3        30.43S
6HR MIN TEMP:  30; 6HR MAX TEMP:  36;

BATON ROUGE    CLEAR     34  31  88 E5        30.43R WCI  30
6HR MIN TEMP:  33; 6HR MAX TEMP:  39;

BOOTHVILLE     CLEAR     51  42  71 NE8       30.41R
6HR MIN TEMP:  50; 6HR MAX TEMP:  53;

BELLE CHASSE   CLEAR     38  33  82 CALM      30.42S
6HR MIN TEMP:  37; 6HR MAX TEMP:  46;

BOGALUSA*        N/A     32  30  91 CALM      30.46R
6HR MIN TEMP:  32; 6HR MAX TEMP:  37;

NEW ROADS*     NOT AVBL
GONZALES*      NOT AVBL
HAMMOND*       NOT AVBL
HOUMA*         CLEAR     39  36  87 NE7       30.41S WCI  34
PORT FOURCHON* SUNNY     50  45  81 NE10G16   30.43R

$$

LAZ041-044-053-054-281300-
SOUTHWEST LOUISIANA

CITY           SKY/WX    TMP DP  RH WIND       PRES   REMARKS
LAKE CHARLES   CLEAR     38  34  85 NE5       30.41R WCI  34
6HR MIN TEMP:  38; 6HR MAX TEMP:  43;

LAFAYETTE      CLEAR     38  34  85 CALM      30.42R
6HR MIN TEMP:  37; 6HR MAX TEMP:  41;

PATTERSON      CLEAR     37  36  93 NE6       30.43S WCI  33
6HR MIN TEMP:  37; 6HR MAX TEMP:  39;

SALT POINT       N/A     44  37  76 CALM      30.40R
6HR MIN TEMP:  44; 6HR MAX TEMP:  49;

NEW IBERIA     CLEAR     40  33  76 E5        30.42R
6HR MIN TEMP:  39; 6HR MAX TEMP:  45;

CHENAULT AIRPK NOT AVBL

$$

LAZ027-028-281300-
CENTRAL LOUISIANA

CITY           SKY/WX    TMP DP  RH WIND       PRES   REMARKS
FORT POLK      CLEAR     36  33  88 SE5       30.38F WCI  32
6HR MIN TEMP:  35; 6HR MAX TEMP:  41;

ALEXANDRIA INT CLEAR     32  31  96 CALM      30.41R
6HR MIN TEMP:  32; 6HR MAX TEMP:  41;

ALEXANDRIA     CLEAR     30  27  88 CALM      30.42R
6HR MIN TEMP:  29; 6HR MAX TEMP:  35;


$$

LAZ001-002-281300-
NORTHWEST LOUISIANA

CITY           SKY/WX    TMP DP  RH WIND       PRES   REMARKS
SHREVEPORT     CLEAR     34  31  88 S6        30.37S WCI  29
6HR MIN TEMP:  34; 6HR MAX TEMP:  41;

BARKSDALE AFB  CLEAR     33  30  90 S7        30.38F WCI  26
6HR MIN TEMP:  31; 6HR MAX TEMP:  39;

DTN SHREVEPORT CLEAR     35  30  82 SE3       30.38F
6HR MIN TEMP:  35; 6HR MAX TEMP:  40;


$$

LAZ014-016-281300-
NORTHEAST LOUISIANA

CITY           SKY/WX    TMP DP  RH WIND       PRES   REMARKS
MONROE         CLEAR     28  28 100 CALM      30.42F FOG
6HR MIN TEMP:  28; 6HR MAX TEMP:  35;

TALLULAH       CLEAR     28  26  92 E3        30.43F
6HR MIN TEMP:  26; 6HR MAX TEMP:  30;


$$




USA.gov is the U.S. government's official web portal to all federal, state and local government web resources and services.